Northbrook, IL

5:22 AM CST on February 24, 2017 (GMT -0600)
Chicago Executive

Weather History for KPWK - May, 2014

Change the Weather History Date:

Thursday, May 15, 2014

  Actual Average Record
Temperature  
Mean Temperature 47 °F 58 °F  
Max Temperature 55 °F 69 °F 89 °F (1998)
Min Temperature 39 °F 47 °F 34 °F (2016)
Degree Days  
Heating Degree Days 18 8  
Month to date heating degree days 133 150  
Since 1 July heating degree days 7047 6263  
Cooling Degree Days 0 1  
Month to date cooling degree days 15 10  
Year to date cooling degree days 15 14  
Moisture  
Dew Point 39 °F    
Average Humidity 80    
Maximum Humidity 93    
Minimum Humidity 52    
Precipitation  
Precipitation 0.37 in 0.12 in 0.53 in (2007)
Month to date precipitation 2.61 1.89  
Year to date precipitation 8.17 9.69  
Sea Level Pressure  
Sea Level Pressure 29.99 in    
Wind  
Wind Speed 10 mph (North)    
Max Wind Speed 22 mph    
Max Gust Speed 31 mph    
Visibility 8 miles    
Events Rain    
T = Trace of Precipitation, MM = Missing Value Source: NWS Daily Summary

Daily Weather History Graph

Daily Weather History Graph

Search for Another Location

Airport or City:

Trip Planner

Search our weather history database for the weather conditions in past years. The results will help you decide how hot, cold, wet, or windy it might be!

Date:

Astronomy

May. 15, 2014 Rise Set
Actual Time 5:30 AM CDT 8:05 PM CDT
Civil Twilight 4:58 AM CDT 8:37 PM CDT
Nautical Twilight 4:18 AM CDT 9:17 PM CDT
Astronomical Twilight 3:33 AM CDT 10:03 PM CDT
Moon 9:13 PM CDT (5/15) 6:17 AM CDT (5/15)
Length of Visible Light 15h 38m
Length of Day
14h 34m
Full, 99% of the Moon is Illuminated
May 15
Full
May 21
Last Quarter
May 28
New
Jun 5
First Quarter
Jun 12
Full

Hourly Weather History & Observations

Time (CDT) Temp. Windchill Dew Point Humidity Pressure Visibility Wind Dir Wind Speed Gust Speed Precip Events Conditions
12:26 AM 44.1 °F 38.1 °F 42.1 °F 93% 30.00 in 4.0 mi NNW 11.5 mph - 0.05 in Rain Light Rain
12:38 AM 44.1 °F 38.6 °F 42.1 °F 93% 29.99 in 4.0 mi NNW 10.4 mph - 0.07 in Rain Light Rain
12:48 AM 44.6 °F 39.2 °F 42.8 °F 93% 29.99 in 5.0 mi NNW 10.4 mph - 0.08 in Rain Light Rain
12:52 AM 45.0 °F 38.9 °F 42.1 °F 90% 29.99 in 5.0 mi NNW 12.7 mph - 0.09 in Rain Light Rain
1:16 AM 45.0 °F 39.3 °F 42.1 °F 90% 29.97 in 5.0 mi NNW 11.5 mph 20.7 mph 0.04 in Rain Rain
1:50 AM 44.6 °F 38.8 °F 42.8 °F 93% 29.95 in 6.0 mi NNW 11.5 mph - 0.08 in Rain Light Rain
1:52 AM 45.0 °F 38.2 °F 42.1 °F 90% 29.96 in 6.0 mi NNW 15.0 mph 21.9 mph 0.08 in Rain Light Rain
2:17 AM 45.0 °F 38.5 °F 42.1 °F 90% 29.94 in 6.0 mi NNW 13.8 mph - 0.04 in Rain Light Rain
2:52 AM 44.1 °F 37.4 °F 41.0 °F 89% 29.93 in 9.0 mi NNW 13.8 mph - 0.05 in Rain Light Rain
3:15 AM 44.1 °F 36.8 °F 41.0 °F 89% 29.91 in 6.0 mi NNW 16.1 mph 21.9 mph 0.01 in Rain Light Rain
3:35 AM 44.1 °F 37.7 °F 41.0 °F 89% 29.92 in 6.0 mi North 12.7 mph - 0.02 in Rain Light Rain
3:52 AM 44.1 °F 37.1 °F 41.0 °F 89% 29.92 in 5.0 mi North 15.0 mph 24.2 mph 0.03 in Rain Light Rain
4:52 AM 44.1 °F 36.5 °F 41.0 °F 89% 29.92 in 6.0 mi North 17.3 mph 25.3 mph 0.05 in Rain Light Rain
5:29 AM 43.0 °F 34.0 °F 39.0 °F 86% 29.93 in 7.0 mi North 21.9 mph 31.1 mph 0.03 in Rain Light Rain
5:52 AM 42.1 °F 33.6 °F 39.0 °F 89% 29.94 in 7.0 mi North 18.4 mph 26.5 mph 0.07 in Rain Light Rain
6:52 AM 42.1 °F 34.9 °F 39.0 °F 89% 29.96 in 10.0 mi North 13.8 mph 24.2 mph 0.04 in Rain Light Rain
7:52 AM 42.1 °F 33.6 °F 37.9 °F 85% 29.97 in 10.0 mi North 18.4 mph 31.1 mph 0.01 in   Overcast
8:52 AM 42.1 °F 36.6 °F 37.9 °F 85% 29.99 in 10.0 mi North 9.2 mph 20.7 mph 0.01 in Rain Light Rain
9:33 AM 41.0 °F 34.7 °F 37.9 °F 89% 29.99 in 9.0 mi North 10.4 mph - 0.02 in Rain Light Rain
9:45 AM 42.1 °F 36.6 °F 37.9 °F 85% 29.99 in 6.0 mi NNW 9.2 mph - 0.02 in Rain Light Rain
10:52 AM 44.1 °F 37.7 °F 39.0 °F 82% 30.01 in 10.0 mi NW 12.7 mph 19.6 mph 0.01 in   Overcast
10:57 AM 45.0 °F 39.3 °F 39.0 °F 80% 29.99 in 10.0 mi NNW 11.5 mph 19.6 mph N/A   Overcast
11:52 AM 51.1 °F - 42.1 °F 71% 29.99 in 10.0 mi NW 12.7 mph - N/A   Scattered Clouds
12:52 PM 53.1 °F - 37.9 °F 57% 29.97 in 10.0 mi North 12.7 mph 24.2 mph N/A   Partly Cloudy
2:52 PM 50.0 °F - 37.9 °F 63% 30.00 in 10.0 mi East 4.6 mph - N/A   Overcast
3:52 PM 50.0 °F - 37.9 °F 63% 30.01 in 10.0 mi East 5.8 mph - N/A   Overcast
4:52 PM 48.9 °F - 35.1 °F 59% 30.02 in 10.0 mi ENE 8.1 mph - N/A   Overcast
5:52 PM 50.0 °F - 33.1 °F 52% 30.04 in 10.0 mi ENE 9.2 mph - N/A   Overcast
6:52 PM 46.9 °F - 33.1 °F 59% 30.06 in 10.0 mi ENE 6.9 mph - N/A   Mostly Cloudy
7:52 PM 45.0 °F 40.1 °F 33.1 °F 63% 30.08 in 10.0 mi East 9.2 mph - N/A   Overcast
8:52 PM 42.1 °F 38.4 °F 33.1 °F 70% 30.09 in 10.0 mi East 5.8 mph - N/A   Clear
9:52 PM 41.0 °F 37.1 °F 33.1 °F 73% 30.10 in 10.0 mi East 5.8 mph - N/A   Clear
10:52 PM 39.9 °F 36.7 °F 34.0 °F 79% 30.10 in 10.0 mi East 4.6 mph - N/A   Clear
11:52 PM 39.9 °F 35.8 °F 34.0 °F 79% 30.08 in 10.0 mi ENE 5.8 mph - N/A   Overcast